Flag for Paraguay Weather past 2 weeks in Ciudad del Este, Paraguay

Now
66 °F

Thunderstorms. Fog.


Feels Like: 66 °F
Forecast: 66 / 76 °F
Wind: 7 mph from Southeast

Location: Foz Do Iguacu Aeroporto

Current Time: Sep 18, 2014 at 3:58:16 PM

Latest Report: Sep 18, 2014 at 3:00 PM


Visibility: 2 mi

Pressure: 29.89 "Hg

Humidity: 100%

Dew point: 66 °F

Location of Ciudad del EsteLocation

Historic Weather in Ciudad del Este — Graph

°F

Ciudad del Este temperature yesterday

Maximum temperature yesterday: 84 °F (at 12:00 PM)
Minimum temperature yesterday: 55 °F (at 1:00 AM)
Average temperature yesterday: 70 °F

Past Weeks' High & Low Weather Summary

 TemperatureHumidityPressure
High97 °F (Sep 13, 2:00 PM)100% (Sep 6, 10:00 PM)30.12 "Hg (Sep 6, 10:00 PM)
Low48 °F (Sep 18, 1:00 PM)26% (Sep 13, 4:00 PM)29.71 "Hg (Sep 10, 2:00 PM)
Average73 °F71%29.95 "Hg
* Reported Sep 3 2:00 PM — Sep 18 2:00 PM, Ciudad del Este, Weather by CustomWeather, © 2014

Note: Actual official high and low records may vary slightly from our data, if they occured in-between our weather recording intervals... More about our weather records

Advertising

Ciudad del Este weather history for previous 24 hours

 ConditionsComfort  
Time TempWeatherWind HumidityBarometerVisibility
2:00 PM
Sep 18
66 °FThunderstorms. Fog.5 mph94%29.92 "Hg1 mi
1:45 PM66 °FThunderstorms. Partly sunny.9 mph94%29.92 "Hg2 mi
1:00 PM48 °FThunderstorms. Cloudy.14 mph100%29.89 "Hg4 mi
12:00 PM66 °FThunderstorms. Mostly cloudy.12 mph94%N/A4 mi
11:00 AM66 °FThunderstorms. Mostly cloudy.9 mph94%N/A2 mi
10:00 AM66 °FPartly sunny.12 mph94%30.04 "HgN/A
9:00 AM68 °FPartly sunny.8 mph83%29.95 "HgN/A
8:00 AM68 °FPartly sunny.6 mph83%29.86 "HgN/A
7:00 AM68 °FPartly sunny.7 mph83%29.86 "HgN/A
6:00 AM68 °FBroken clouds.9 mph83%29.86 "HgN/A
5:00 AM68 °FScattered clouds.5 mph83%29.86 "HgN/A
4:00 AM70 °FClear.5 mph78%29.86 "Hg10 mi
3:00 AM70 °FClear.5 mph73%29.89 "Hg10 mi
2:00 AM70 °FClear.3 mph73%29.89 "Hg10 mi
1:00 AM70 °FClear.2 mph73%29.92 "Hg10 mi
12:00 AM70 °FClear.7 mph73%29.92 "Hg10 mi
11:00 PM
Sep 17
70 °FClear.6 mph78%29.92 "Hg10 mi
10:00 PM70 °FClear.5 mph83%29.92 "Hg10 mi
9:00 PM72 °FClear.8 mph78%29.92 "Hg10 mi
8:00 PM73 °FClear.7 mph74%29.92 "Hg10 mi
7:00 PM73 °FClear.5 mph69%29.92 "Hg10 mi
6:00 PM75 °FClear.6 mph65%29.89 "Hg10 mi
5:00 PM79 °FClear.6 mph54%29.92 "Hg10 mi
4:00 PM82 °FSunny.6 mph45%29.89 "Hg10 mi
3:00 PM84 °FSunny.3 mph37%29.89 "Hg10 mi
Weather by CustomWeather, © 2014

See weather overviewHow to use our weather pages